Location: Rehoboth Beach
(38.7438°N, 75.1341°W)
Time: 21:51:41
(UTC-04:00)

HST - Visible Passes

Search period start: 31 October 2014 00:00
Search period end: 09 November 2014 23:00
Orbit: 546 x 550 km, 28.5° (Epoch: 31 October)

Date Brightness Start Highest point End Pass type
(mag) Time Alt. Az. Time Alt. Az. Time Alt. Az.
31 Oct 2.9 18:25:47 10° SW 18:28:50 20° S 18:31:53 10° SE visible
31 Oct 3.0 20:06:55 10° SW 20:09:30 17° SSW 20:09:30 17° SSW visible
01 Nov 3.1 19:59:46 10° SW 20:02:09 15° SSW 20:02:40 15° S visible
02 Nov 3.3 18:52:47 10° SW 18:54:40 13° SSW 18:55:54 12° S visible
03 Nov 3.5 18:46:15 10° SSW 18:47:10 11° SSW 18:48:05 10° S visible
